Theta_e
298 296 293 296 297 295 293 292 291 295 299 295 297 297 300 303 303 304 305 306 307 308 311 313 314 315 316 321 328 340 347 350 349 347 345 345 345 346 348 350 351 351 351 352
296 293 298 298 296 294 293 292 292 296 298 296 297 297 301 302 303 304 304 305 306 309 310 312 315 317 317 320 327 331 340 350 348 346 345 346 345 345 345 347 350 351 350 351
294 295 297 295 295 293 294 292 293 293 296 299 297 295 298 301 302 304 305 306 307 307 308 311 313 315 318 320 324 328 335 345 349 350 346 346 347 346 342 343 345 347 348 348
295 299 295 295 293 295 291 296 295 294 293 289 296 287 296 299 300 301 304 306 305 306 308 309 311 314 317 320 323 326 332 340 347 350 348 347 343 340 343 343 345 347 349 348
294 294 294 293 295 296 294 296 295 295 294 293 293 290 294 298 297 300 302 304 307 308 309 308 309 311 313 317 319 326 329 332 342 348 350 347 347 346 347 346 347 350 349 349
297 299 297 297 297 297 299 297 296 295 293 286 292 291 292 294 297 299 302 304 306 306 308 309 310 312 312 314 316 323 327 330 335 342 346 348 349 347 344 345 345 346 348 349
296 296 299 298 295 299 297 294 287 285 285 285 292 289 292 297 300 300 301 303 306 307 307 308 309 309 311 312 315 319 325 328 332 337 343 347 349 350 346 346 345 344 343 344
289 287 295 299 296 295 295 294 288 281 283 286 292 286 292 299 301 302 303 305 305 306 308 308 309 310 312 314 315 315 320 325 329 332 339 342 344 343 342 342 341 341 341 342
289 288 297 299 299 298 294 291 295 289 289 285 288 292 296 298 298 301 302 302 303 306 307 308 310 311 311 314 316 316 319 323 327 328 330 330 329 331 330 333 335 334 336 335
294 288 294 297 299 298 296 298 289 291 281 279 285 286 287 292 295 299 299 301 303 306 307 309 309 311 313 314 317 319 320 321 325 325 325 325 327 328 330 331 331 333 333 334
296 293 291 295 293 292 293 292 292 291 289 282 280 284 294 295 296 297 299 301 303 305 307 308 308 309 313 314 315 317 319 320 322 323 325 325 325 326 328 330 331 332 333 334
295 293 288 290 296 296 294 294 294 287 284 287 286 284 296 297 298 300 299 301 304 305 306 309 309 309 312 314 313 316 318 318 319 320 319 322 323 326 327 330 331 332 332 333
296 290 285 286 290 293 292 293 294 292 291 285 282 285 297 297 298 299 299 301 304 304 304 306 309 309 310 312 313 314 313 314 317 316 317 320 320 323 326 329 331 331 333 335
298 291 288 284 287 291 288 291 293 292 286 286 287 288 292 295 296 298 300 302 303 304 303 303 307 308 308 309 312 313 313 315 313 313 315 317 320 322 323 327 329 331 333 333
295 286 289 290 291 291 289 289 290 289 290 286 288 289 292 295 296 298 301 302 302 301 301 301 304 307 307 307 308 309 312 312 312 313 314 315 319 320 320 322 326 329 331 331
293 287 289 286 288 288 286 288 289 290 290 290 290 289 296 299 301 300 301 301 300 300 300 301 303 306 306 306 306 307 308 310 312 313 312 313 314 315 316 320 321 324 327 328
290 288 286 281 286 287 282 287 288 289 291 290 286 293 299 298 299 300 301 300 299 299 299 300 302 304 306 306 306 306 307 308 307 307 309 311 312 313 314 316 317 320 323 325
289 287 287 282 284 276 287 296 295 292 294 296 296 298 299 299 300 300 301 299 299 299 299 300 302 302 304 305 305 306 306 306 306 306 306 308 308 309 313 315 316 319 321 321
291 289 285 281 282 285 288 292 292 290 291 296 295 297 297 298 297 296 300 300 299 299 300 301 302 302 303 304 305 305 304 305 305 305 306 307 307 309 310 312 315 318 319 318
290 291 287 283 279 278 288 295 296 295 286 296 296 294 293 294 286 292 299 300 299 300 300 300 302 302 303 303 304 303 302 303 303 304 305 307 308 308 308 311 313 315 316 316
286 285 282 282 281 286 293 295 296 284 287 295 295 294 294 290 293 297 298 298 299 298 300 301 302 302 302 304 303 301 302 302 304 305 305 305 306 307 308 310 311 312 313 313
287 285 284 284 282 280 296 295 288 294 296 296 295 295 293 293 294 294 295 295 296 296 298 298 298 301 303 303 302 300 301 303 304 304 303 303 305 306 306 307 308 309 310 310
287 291 287 288 289 294 297 295 297 297 295 295 294 295 294 293 292 293 293 294 294 295 296 298 296 299 299 301 302 299 300 301 302 301 301 302 303 304 305 306 306 306 307 307
292 294 291 290 293 294 295 298 297 296 295 295 295 295 293 291 292 292 292 292 292 293 294 294 296 296 295 297 299 300 301 301 300 300 300 302 302 303 305 305 306 305 305 306
292 294 290 290 293 294 295 296 295 295 295 295 295 294 293 293 292 292 291 291 291 292 292 294 293 293 292 295 295 297 298 299 299 299 300 300 301 302 303 304 305 305 307 306
295 291 289 287 292 290 292 295 296 294 293 294 294 293 293 293 291 291 290 291 290 290 291 290 291 292 293 294 294 296 299 299 297 296 298 298 298 299 299 301 303 297 297 296
Wind_Speed
2 6 11 13 10 4 4 5 9 12 13 5 11 12 12 14 14 14 12 11 11 13 12 11 11 10 11 12 12 15 16 17 13 13 14 12 14 13 12 13 17 16 15 18
4 11 12 8 8 8 7 9 11 11 11 8 12 14 15 15 11 10 12 15 18 18 16 14 13 10 10 12 13 14 18 17 16 13 12 11 11 11 11 11 13 14 16 15
11 3 9 9 8 9 10 10 10 11 9 8 12 15 9 8 11 13 14 15 17 17 19 19 17 14 12 11 13 14 17 19 19 19 11 9 7 5 9 11 12 13 14 13
9 12 12 8 11 10 12 10 13 10 8 10 4 10 16 11 8 8 14 15 14 17 19 18 19 18 16 15 11 14 14 16 17 18 14 18 14 13 12 12 12 11 14 14
4 5 7 8 9 12 9 4 9 10 11 8 13 15 3 11 16 13 8 14 16 17 18 21 21 19 20 17 14 11 13 15 16 16 16 15 15 12 8 9 13 12 12 15
10 2 4 7 2 10 2 4 3 2 5 13 15 15 5 8 12 11 14 9 13 17 18 18 19 19 18 17 13 12 12 15 16 17 19 18 16 14 11 11 11 11 9 9
11 17 11 9 13 7 6 6 7 8 9 13 5 11 12 14 16 12 8 8 13 17 19 19 20 19 16 17 16 12 14 15 15 18 18 19 17 15 15 12 10 11 9 9
6 9 5 5 12 9 9 10 8 9 12 16 12 10 9 5 12 11 9 9 14 17 18 19 19 18 18 16 17 15 16 16 15 16 16 13 13 9 9 10 8 7 8 7
6 5 1 3 2 2 6 8 2 7 6 11 11 14 11 13 10 7 9 13 17 18 18 19 18 17 18 14 15 15 16 16 15 14 12 10 9 9 9 10 8 6 5 5
4 6 2 2 2 6 3 8 4 1 8 17 9 15 12 15 7 10 13 15 17 17 18 19 17 15 15 15 9 10 13 15 11 10 9 10 10 7 6 7 8 8 7 7
1 5 5 2 6 11 5 5 2 2 3 7 12 5 2 9 12 15 11 16 16 15 16 17 16 14 12 14 6 4 5 8 11 10 9 9 9 9 9 9 9 10 10 9
2 4 9 15 10 4 5 9 8 6 7 6 9 16 15 19 11 7 16 19 14 12 14 14 16 11 8 10 10 7 4 4 6 3 4 8 8 11 11 10 11 11 11 11
1 2 6 4 4 3 6 6 7 4 6 15 16 14 5 6 15 19 20 16 11 11 13 13 13 12 10 12 11 8 9 8 3 3 5 5 5 6 6 9 10 10 11 11
1 6 12 12 10 5 7 11 14 14 9 15 19 28 24 21 21 19 17 11 11 11 12 14 12 10 11 12 13 13 6 10 12 7 8 8 8 6 8 6 9 11 11 13
9 12 16 18 21 18 15 15 14 17 21 21 24 25 24 24 22 19 12 11 11 12 16 13 12 10 9 11 13 14 13 6 9 12 9 10 8 5 7 9 10 10 12 12
3 10 5 12 11 14 18 20 21 23 24 24 25 30 21 14 9 11 13 12 14 15 17 14 13 11 10 8 9 11 11 10 2 11 10 8 9 7 9 10 11 12 12 12
6 6 6 12 7 9 13 18 19 20 19 16 18 19 10 12 14 15 14 14 18 19 17 16 15 12 11 11 9 10 9 9 5 4 6 9 7 5 6 8 10 12 13 12
13 6 4 8 6 7 3 2 2 4 10 11 16 16 16 15 13 16 16 19 20 19 19 18 16 17 17 14 13 11 11 9 10 9 6 6 4 8 8 5 8 11 10 13
14 10 4 4 6 13 9 2 2 4 13 11 16 15 12 16 22 25 19 14 16 20 21 20 20 19 17 17 16 14 13 13 12 11 9 8 5 6 9 6 7 7 8 10
6 7 7 4 5 5 5 2 3 3 11 7 9 19 25 23 19 17 17 20 25 24 22 23 22 21 20 18 16 16 16 15 14 12 11 10 10 10 10 10 6 5 6 8
4 2 9 8 5 7 3 4 5 6 6 17 17 23 23 20 20 25 24 25 24 22 25 25 24 22 20 19 18 19 18 17 15 13 13 13 13 13 13 11 9 9 8 8
3 4 3 3 5 5 5 7 6 12 21 16 23 23 20 20 24 26 25 24 23 25 28 23 20 22 20 19 20 20 19 16 15 15 16 15 14 12 11 13 11 11 11 12
2 3 1 4 3 2 4 9 14 12 17 24 23 22 23 23 25 26 25 26 25 25 22 20 21 21 21 19 20 22 19 18 18 18 19 18 16 15 15 14 14 11 13 13
1 2 4 5 1 12 14 10 13 19 20 22 21 20 22 28 28 27 25 20 19 20 17 19 19 19 19 14 17 19 20 19 18 18 19 16 15 15 15 12 12 11 12 12
2 2 2 7 9 14 2 16 20 24 22 20 20 24 26 28 26 26 23 24 20 19 19 16 17 20 18 14 13 15 18 16 16 18 16 14 11 13 13 12 11 12 14 13
1 1 2 5 10 8 17 18 21 20 22 22 24 27 25 25 27 28 22 20 19 18 16 17 17 16 19 20 17 13 16 15 13 13 11 10 9 9 9 11 12 16 16 10
Wind_Direction
101 209 216 213 209 220 238 242 257 265 272 274 277 284 289 301 303 301 300 293 280 279 281 278 274 274 265 256 244 225 216 211 200 202 203 202 207 204 206 209 203 205 205 208
196 243 238 212 201 217 219 255 262 271 262 215 276 276 289 281 279 277 286 294 294 292 284 281 284 279 257 254 236 228 225 213 200 202 206 207 209 210 206 205 206 213 215 215
224 208 104 193 209 227 233 236 260 271 303 243 278 278 267 267 246 270 274 269 273 280 292 298 291 280 286 257 247 239 227 219 208 202 197 198 177 185 191 201 206 205 207 208
242 249 245 224 240 219 263 227 254 269 279 289 13 290 295 298 274 264 279 295 318 305 299 294 292 294 290 268 248 243 235 223 217 203 196 199 199 194 207 207 203 198 197 200
205 181 169 203 232 185 255 202 254 277 269 290 277 277 209 284 293 290 332 328 333 332 314 297 294 294 293 286 280 249 232 227 220 209 213 200 207 215 194 199 198 204 204 207
260 241 239 256 183 205 147 256 286 263 281 258 268 262 288 290 291 298 312 328 338 342 336 323 306 293 283 283 280 267 235 227 213 207 207 211 207 204 192 188 193 200 206 204
254 243 256 230 255 185 214 253 269 253 234 267 335 286 270 291 281 297 289 318 334 328 331 329 325 312 300 293 289 271 243 233 214 210 209 210 212 204 203 183 187 185 192 197
261 270 212 182 226 248 206 219 232 266 272 287 309 262 289 285 300 297 283 324 331 336 333 329 330 320 310 305 292 275 251 235 210 197 202 201 202 191 194 184 183 192 200 196
199 247 265 49 121 244 149 211 341 278 237 273 261 267 268 271 290 340 343 343 347 336 329 325 316 335 318 311 303 279 262 241 214 200 179 173 171 169 167 167 175 170 172 167
192 267 201 108 109 63 241 134 184 201 283 282 271 282 270 287 293 319 326 338 338 330 331 332 320 313 325 307 309 288 266 248 207 186 166 165 167 163 151 151 167 172 170 174
155 253 231 222 227 247 173 196 100 330 213 275 299 263 198 271 297 305 302 323 326 325 331 335 324 306 323 314 330 330 281 228 189 166 173 169 162 162 164 172 175 172 161 163
14 264 257 260 272 276 265 240 215 222 219 236 266 280 274 273 283 258 291 313 316 318 332 337 340 319 323 346 26 38 113 119 65 80 235 172 194 176 178 173 176 166 161 164
121 240 277 245 202 184 235 202 218 230 256 247 263 267 184 214 294 297 304 306 307 322 336 340 352 355 341 338 339 25 45 25 30 234 246 252 220 194 213 192 161 179 168 165
299 260 257 261 291 307 262 239 227 223 235 262 250 273 279 288 293 304 300 295 307 316 328 335 336 350 357 4 5 354 294 24 14 329 284 239 220 190 227 227 207 183 181 173
240 244 255 258 264 268 264 258 245 229 243 253 273 274 288 296 297 293 288 286 303 315 322 325 319 322 342 357 0 6 9 4 2 340 341 304 273 230 217 212 221 210 188 187
224 256 238 265 274 272 270 263 256 253 252 257 264 277 287 297 285 265 272 287 299 305 312 312 312 301 311 330 336 341 348 357 269 287 312 334 310 257 220 221 205 214 202 195
252 247 264 276 300 296 268 259 259 258 256 260 261 274 316 281 278 277 288 293 297 302 300 299 300 296 291 296 304 303 313 315 300 255 279 309 323 329 241 231 219 215 204 191
236 228 226 277 297 251 36 346 344 293 275 260 268 274 281 295 291 288 287 288 289 293 295 293 291 292 288 284 285 282 283 279 280 282 279 268 336 329 313 257 232 226 203 194
220 210 212 242 237 295 289 86 320 339 298 289 289 306 311 309 300 284 280 276 285 293 294 290 288 287 283 279 282 281 273 271 267 262 265 272 276 269 279 259 224 222 197 189
144 204 197 175 244 267 48 153 354 293 278 38 337 311 305 303 284 282 293 299 295 289 286 287 285 283 276 270 271 277 275 267 265 259 256 256 258 251 248 250 243 236 216 215
125 146 214 227 256 276 11 339 305 264 352 317 316 313 305 290 277 292 297 292 289 287 281 290 279 274 268 267 265 268 268 266 266 261 260 258 254 250 253 256 246 247 242 242
200 187 189 199 236 263 23 340 320 324 305 306 310 307 296 292 290 288 288 285 285 285 276 279 273 271 262 261 257 258 258 260 260 260 258 257 256 248 246 245 249 243 239 242
240 348 342 246 301 353 298 298 299 307 300 309 310 305 297 294 291 291 291 286 280 281 275 271 275 261 268 261 251 251 259 260 255 255 256 252 249 249 243 240 241 240 236 238
101 179 256 317 144 321 316 316 324 318 309 307 300 300 306 297 295 295 295 297 295 287 276 285 263 268 270 272 259 246 252 257 248 253 251 241 242 240 233 233 231 234 237 237
316 300 348 268 294 325 295 326 320 317 307 306 307 294 297 301 301 300 300 298 296 292 284 266 269 273 267 270 266 262 255 248 245 249 246 243 242 230 228 232 237 236 240 238
183 121 274 294 338 294 298 313 313 305 310 311 307 304 306 306 302 303 300 301 296 293 288 279 274 267 270 270 263 260 247 234 235 247 241 233 230 231 238 244 239 217 239 222